• In Hungary
  • List of Countries
  • For 7 days
  • Water Temperature
  • Satellite Maps
  • Weather Map
  • News
  • Weather Widgets
  • user-avatar
    Login

    Hourly Weather Adelaide

    Today, 20 September, Wednesday

    Time Temperature Precipitation Wind Pressure Humidity
    00:00 +9°C° 0 mm 3 mps 762 mmHg 76%
    01:00 +9°C° 0 mm 3 mps 761 mmHg 76%
    02:00 +9°C° 0 mm 3 mps 761 mmHg 76%
    03:00 +10°C° 0 mm 4 mps 760 mmHg 75%
    04:00 +10°C° 0 mm 4 mps 760 mmHg 75%
    05:00 +10°C° 0 mm 4 mps 760 mmHg 74%
    06:00 +10°C° 0 mm 4 mps 760 mmHg 74%
    07:00 +12°C° 0 mm 4 mps 760 mmHg 66%
    08:00 +15°C° 0 mm 5 mps 760 mmHg 59%
    09:00 +17°C° 0 mm 5 mps 760 mmHg 49%
    10:00 +19°C° 0 mm 5 mps 759 mmHg 46%
    11:00 +21°C° 0 mm 5 mps 758 mmHg 43%
    12:00 +22°C° 0 mm 5 mps 758 mmHg 40%
    13:00 +22°C° 0 mm 5 mps 757 mmHg 41%
    14:00 +22°C° 0 mm 5 mps 757 mmHg 42%
    15:00 +23°C° 0 mm 4 mps 756 mmHg 43%
    16:00 +21°C° 0 mm 4 mps 756 mmHg 46%
    17:00 +20°C° 0 mm 4 mps 755 mmHg 49%
    18:00 +18°C° 0 mm 4 mps 755 mmHg 52%
    19:00 +19°C° 0 mm 5 mps 755 mmHg 47%
    20:00 +19°C° 0 mm 5 mps 755 mmHg 42%
    21:00 +19°C° 0 mm 6 mps 754 mmHg 37%
    22:00 +19°C° 0 mm 6 mps 754 mmHg 33%
    23:00 +19°C° 0 mm 6 mps 753 mmHg 29%

    Tomorrow, 21 September, Thursday

    Time Temperature Precipitation Wind Pressure Humidity
    00:00 +19°C° 0 mm 6 mps 753 mmHg 25%
    01:00 +19°C° 0 mm 6 mps 753 mmHg 25%
    02:00 +19°C° 0 mm 5 mps 753 mmHg 25%
    03:00 +17°C° 0 mm 5 mps 753 mmHg 26%
    04:00 +17°C° 0 mm 5 mps 753 mmHg 30%
    05:00 +17°C° 0 mm 5 mps 753 mmHg 34%
    06:00 +17°C° 0 mm 4 mps 754 mmHg 38%
    07:00 +18°C° 0 mm 4 mps 754 mmHg 45%
    08:00 +18°C° 0 mm 4 mps 754 mmHg 52%
    09:00 +19°C° 0 mm 3 mps 755 mmHg 60%
    10:00 +20°C° 0 mm 3 mps 754 mmHg 58%
    11:00 +20°C° 0 mm 3 mps 754 mmHg 57%
    12:00 +21°C° 0 mm 3 mps 754 mmHg 55%
    13:00 +21°C° 0 mm 3 mps 754 mmHg 56%
    14:00 +20°C° 0 mm 4 mps 754 mmHg 57%
    15:00 +20°C° 0 mm 4 mps 753 mmHg 58%
    16:00 +18°C° 0 mm 3 mps 754 mmHg 63%
    17:00 +16°C° 0 mm 3 mps 754 mmHg 68%
    18:00 +14°C° 0 mm 3 mps 754 mmHg 74%
    19:00 +13°C° 0 mm 3 mps 754 mmHg 77%
    20:00 +12°C° 0 mm 3 mps 755 mmHg 80%
    21:00 +11°C° 0 mm 3 mps 755 mmHg 83%
    22:00 +12°C° 0 mm 2 mps 755 mmHg 82%
    23:00 +12°C° 0 mm 2 mps 755 mmHg 81%

    Day after tomorrow, 22 September, Friday

    Time Temperature Precipitation Wind Pressure Humidity
    00:00 +11°C° 0 mm 1 mps 755 mmHg 81%
    01:00 +10°C° 0 mm 2 mps 754 mmHg 80%
    02:00 +10°C° 0 mm 2 mps 754 mmHg 80%
    03:00 +10°C° 0 mm 3 mps 753 mmHg 79%
    04:00 +10°C° 0 mm 3 mps 753 mmHg 78%
    05:00 +11°C° 0 mm 3 mps 753 mmHg 77%
    06:00 +11°C° 0 mm 4 mps 753 mmHg 76%
    07:00 +14°C° 0 mm 4 mps 752 mmHg 70%
    08:00 +17°C° 0 mm 4 mps 752 mmHg 63%
    09:00 +20°C° 0 mm 5 mps 752 mmHg 56%
    10:00 +22°C° 0 mm 5 mps 751 mmHg 52%
    11:00 +23°C° 0 mm 5 mps 751 mmHg 48%
    12:00 +26°C° 0 mm 5 mps 750 mmHg 43%
    13:00 +26°C° 0 mm 4 mps 750 mmHg 43%
    14:00 +27°C° 0 mm 4 mps 749 mmHg 44%
    15:00 +27°C° 0 mm 4 mps 749 mmHg 44%
    16:00 +25°C° 0 mm 4 mps 749 mmHg 48%
    17:00 +24°C° 0 mm 3 mps 749 mmHg 52%
    18:00 +21°C° 0 mm 3 mps 748 mmHg 57%
    19:00 +21°C° 0 mm 3 mps 748 mmHg 55%
    20:00 +21°C° 0 mm 3 mps 749 mmHg 53%
    21:00 +20°C° 0 mm 3 mps 749 mmHg 51%
    22:00 +20°C° 0.1 mm 3 mps 748 mmHg 53%
    23:00 +19°C° 0.1 mm 2 mps 747 mmHg 55%

    23 September, Saturday

    Time Temperature Precipitation Wind Pressure Humidity
    00:00 +19°C° 0.1 mm 2 mps 746 mmHg 57%
    01:00 +18°C° 0 mm 2 mps 745 mmHg 57%
    02:00 +18°C° 0 mm 3 mps 744 mmHg 56%
    03:00 +18°C° 0 mm 3 mps 743 mmHg 56%
    04:00 +19°C° 0 mm 4 mps 743 mmHg 51%
    05:00 +20°C° 0 mm 5 mps 742 mmHg 46%
    06:00 +21°C° 0 mm 6 mps 742 mmHg 41%
    07:00 +20°C° 0.1 mm 7 mps 743 mmHg 49%
    08:00 +20°C° 0.1 mm 8 mps 744 mmHg 58%
    09:00 +18°C° 0.1 mm 9 mps 745 mmHg 67%
    10:00 +19°C° 0 mm 10 mps 745 mmHg 63%
    11:00 +19°C° 0 mm 10 mps 746 mmHg 58%
    12:00 +19°C° 0 mm 10 mps 746 mmHg 54%
    13:00 +18°C° 0.1 mm 10 mps 746 mmHg 55%
    14:00 +18°C° 0.1 mm 10 mps 746 mmHg 56%
    15:00 +18°C° 0.1 mm 10 mps 746 mmHg 58%
    16:00 +17°C° 0.1 mm 9 mps 746 mmHg 61%
    17:00 +15°C° 0.1 mm 8 mps 746 mmHg 65%
    18:00 +14°C° 0.1 mm 7 mps 747 mmHg 69%
    19:00 +14°C° 0.2 mm 7 mps 747 mmHg 72%
    20:00 +13°C° 0.2 mm 8 mps 748 mmHg 75%
    21:00 +12°C° 0.2 mm 8 mps 748 mmHg 79%
    22:00 +12°C° 0.2 mm 8 mps 748 mmHg 79%
    23:00 +12°C° 0.2 mm 9 mps 748 mmHg 80%

    24 September, Sunday

    Time Temperature Precipitation Wind Pressure Humidity
    00:00 +12°C° 0.2 mm 9 mps 747 mmHg 80%
    01:00 +11°C° 0.1 mm 9 mps 747 mmHg 79%
    02:00 +11°C° 0.1 mm 9 mps 747 mmHg 78%
    03:00 +11°C° 0.1 mm 9 mps 747 mmHg 77%
    04:00 +11°C° 0 mm 8 mps 747 mmHg 76%
    05:00 +11°C° 0 mm 8 mps 748 mmHg 76%
    06:00 +11°C° 0 mm 8 mps 748 mmHg 75%
    07:00 +12°C° 0.1 mm 8 mps 749 mmHg 72%
    08:00 +12°C° 0.1 mm 9 mps 749 mmHg 69%
    09:00 +13°C° 0.1 mm 9 mps 749 mmHg 66%
    10:00 +15°C° 0.1 mm 9 mps 749 mmHg 63%
    11:00 +16°C° 0.1 mm 9 mps 749 mmHg 60%
    12:00 +17°C° 0.1 mm 9 mps 749 mmHg 56%
    13:00 +17°C° 0.1 mm 9 mps 749 mmHg 57%
    14:00 +16°C° 0.1 mm 8 mps 749 mmHg 57%
    15:00 +16°C° 0.1 mm 8 mps 749 mmHg 58%
    16:00 +15°C° 0.1 mm 8 mps 750 mmHg 63%
    17:00 +14°C° 0.1 mm 7 mps 751 mmHg 67%
    18:00 +13°C° 0.1 mm 6 mps 751 mmHg 72%
    19:00 +11°C° 0.2 mm 6 mps 752 mmHg 74%
    20:00 +11°C° 0.2 mm 6 mps 752 mmHg 75%
    21:00 +11°C° 0.2 mm 6 mps 753 mmHg 77%
    22:00 +10°C° 0.1 mm 6 mps 753 mmHg 77%
    23:00 +10°C° 0.1 mm 6 mps 753 mmHg 77%

    25 September, Monday

    Time Temperature Precipitation Wind Pressure Humidity
    00:00 +10°C° 0.1 mm 6 mps 753 mmHg 78%
    01:00 +10°C° 0 mm 5 mps 753 mmHg 78%
    02:00 +10°C° 0 mm 5 mps 753 mmHg 78%
    03:00 +11°C° 0 mm 4 mps 753 mmHg 78%
    04:00 +10°C° 0 mm 4 mps 753 mmHg 79%
    05:00 +10°C° 0 mm 4 mps 754 mmHg 80%
    06:00 +10°C° 0 mm 4 mps 754 mmHg 81%
    07:00 +12°C° 0 mm 4 mps 755 mmHg 74%
    08:00 +13°C° 0 mm 4 mps 755 mmHg 67%
    09:00 +15°C° 0 mm 4 mps 756 mmHg 59%
    10:00 +17°C° 0 mm 4 mps 756 mmHg 56%
    11:00 +17°C° 0 mm 4 mps 756 mmHg 52%
    12:00 +18°C° 0 mm 3 mps 756 mmHg 49%
    13:00 +18°C° 0 mm 3 mps 756 mmHg 49%
    14:00 +18°C° 0 mm 3 mps 755 mmHg 50%
    15:00 +18°C° 0 mm 3 mps 755 mmHg 50%
    16:00 +16°C° 0 mm 3 mps 756 mmHg 57%
    17:00 +13°C° 0 mm 3 mps 756 mmHg 64%
    18:00 +12°C° 0 mm 3 mps 757 mmHg 71%
    19:00 +11°C° 0 mm 3 mps 757 mmHg 76%
    20:00 +10°C° 0 mm 4 mps 758 mmHg 80%
    21:00 +8°C° 0 mm 4 mps 758 mmHg 84%
    22:00 +8°C° 0 mm 4 mps 758 mmHg 84%
    23:00 +7°C° 0 mm 4 mps 758 mmHg 83%
    Show more